GFSSGP_850_spd_105.txt.gz
Wind_Speed
6 4 6 4 2 3 3 6 4 7 8 3 3 5 9 7 5 4 9 20 23 25 24 24 21 19 17 17 16 16 15 14 14 13 12 10 7 6 8 11 14 17 14 14 16 14 14 13 12
7 6 3 2 3 1 5 4 4 5 11 2 8 7 4 3 6 10 24 20 21 25 25 23 22 18 20 17 18 17 16 16 15 12 8 5 6 8 10 13 16 16 15 14 14 12 15 12 13
8 7 2 3 4 6 5 5 2 7 11 5 3 6 4 5 6 20 15 24 24 27 27 24 22 20 19 18 17 17 17 14 12 10 7 8 9 11 13 15 18 14 13 12 12 12 13 12 13
7 5 2 2 8 6 6 4 7 15 6 5 2 4 2 5 9 16 23 24 26 27 26 25 22 21 21 18 17 17 16 13 11 11 11 11 12 14 16 17 17 13 12 11 12 12 11 12 12
9 3 2 3 7 4 2 4 16 13 3 6 2 4 2 6 4 16 24 22 23 28 26 24 22 20 19 16 15 15 14 14 13 13 15 15 15 16 16 14 15 14 12 12 12 11 10 10 10
5 2 3 8 6 1 2 6 5 4 3 2 3 3 4 4 5 16 20 21 22 27 26 23 20 18 16 16 16 16 16 15 16 20 18 14 13 14 13 11 11 11 12 13 13 11 9 8 8
4 3 4 3 2 3 2 1 2 5 4 3 3 2 3 11 11 20 18 19 24 26 26 23 19 17 17 18 17 16 16 17 18 17 15 13 11 12 11 11 11 13 13 14 13 11 8 6 6
4 3 2 3 2 5 3 2 2 5 3 3 3 4 5 19 22 25 19 20 24 26 24 21 19 18 20 19 18 17 18 18 20 15 10 10 10 11 11 11 12 13 13 13 13 11 8 7 8
3 1 3 2 3 3 3 4 3 7 5 5 6 3 7 21 25 25 24 24 24 26 23 21 20 21 20 20 19 19 19 19 18 13 8 8 9 11 11 12 12 13 13 14 13 12 11 11 13
2 3 5 4 4 4 11 3 10 4 5 8 10 9 11 22 27 30 30 28 27 26 24 22 22 23 23 21 21 21 21 20 17 11 10 11 11 10 12 13 14 15 15 15 14 15 15 15 16
1 3 2 4 14 19 14 14 10 4 4 15 16 21 21 30 32 32 31 29 24 23 23 25 25 25 26 24 23 22 21 18 15 13 14 13 11 12 13 14 16 16 15 16 16 17 17 16 15
4 6 3 7 10 9 7 15 6 13 14 23 22 17 26 33 35 33 34 30 26 25 23 26 27 28 28 25 24 21 18 16 16 16 14 10 10 13 15 16 17 17 17 17 16 15 16 15 14
4 2 11 14 16 12 14 14 9 14 16 20 17 19 28 32 34 35 29 29 25 26 24 28 29 31 27 26 24 20 18 17 16 15 14 10 9 13 16 17 17 18 16 14 14 13 13 13 12
4 10 15 12 17 13 10 9 7 3 9 19 15 20 29 39 36 34 33 30 22 29 25 29 31 32 29 26 24 21 19 16 16 14 11 9 8 11 15 17 18 18 16 14 12 11 11 10 10
9 4 8 2 5 6 4 5 5 13 16 20 21 22 25 40 38 38 38 31 35 38 28 31 33 33 30 27 24 22 18 15 14 13 12 10 9 12 14 16 17 18 17 14 12 10 9 7 6
4 3 4 7 4 4 3 6 7 9 9 10 16 20 26 33 44 44 39 28 32 40 35 30 34 35 32 29 25 24 19 15 13 14 12 11 11 12 14 15 16 16 15 13 11 9 8 6 5
4 4 4 6 7 5 4 6 6 21 13 13 15 14 27 35 37 42 39 37 36 41 40 34 36 35 34 30 27 26 22 19 17 16 14 12 13 13 13 15 16 15 15 13 10 9 7 6 4
6 5 5 7 5 5 9 9 12 20 18 15 14 15 16 30 41 44 46 43 37 39 44 38 38 36 33 33 35 30 27 23 20 18 16 14 15 15 15 16 16 15 15 13 11 9 8 6 5
6 4 6 9 9 5 8 8 9 18 19 16 19 17 16 21 32 40 48 47 41 40 45 43 39 35 37 41 42 38 33 30 25 22 19 15 16 15 15 16 17 17 15 13 11 10 9 8 6
6 7 12 10 6 4 9 11 8 7 9 20 17 18 18 19 21 32 43 45 47 47 49 44 46 46 42 49 44 41 37 35 30 26 20 16 17 16 16 17 17 17 16 15 13 11 9 8 7
6 7 6 10 10 4 7 7 6 4 9 16 13 13 11 16 21 25 38 44 44 49 51 53 53 55 51 50 48 44 40 37 31 26 23 19 18 17 18 18 17 16 16 15 13 12 10 9 9
6 4 9 13 10 6 8 5 5 7 7 5 14 19 18 15 16 22 33 41 49 48 49 48 51 56 50 50 49 47 43 39 32 27 22 19 21 17 18 19 19 17 16 15 13 12 12 11 10
9 11 8 7 7 4 6 2 7 7 7 14 13 25 22 14 13 20 31 39 44 44 48 48 50 47 48 49 49 45 42 31 26 21 19 19 20 18 19 20 19 18 16 14 13 13 12 12 12
10 4 4 4 3 2 4 6 5 4 8 14 14 21 14 6 11 18 25 32 41 42 30 36 50 41 45 46 47 39 33 25 15 13 14 24 24 19 20 21 19 18 16 15 14 14 14 14 14
9 6 4 6 5 6 6 2 6 8 8 9 10 14 12 2 12 15 24 33 38 36 40 38 41 44 47 41 30 23 28 23 9 13 22 26 25 25 21 20 19 18 17 16 14 14 15 16 16
4 3 2 3 5 5 7 7 5 5 7 13 17 14 19 16 9 13 18 27 32 38 39 36 40 37 41 26 13 7 3 15 24 23 21 22 20 19 22 19 18 17 15 15 15 15 17 18 18
5 5 2 3 4 3 3 2 5 9 10 14 18 26 27 25 14 6 10 15 16 23 23 23 20 23 25 17 15 11 18 25 18 8 12 17 17 20 21 19 18 17 16 15 16 16 15 15 16
2 6 2 3 5 5 6 3 5 13 13 12 12 17 21 21 22 21 17 9 7 15 16 10 9 8 11 8 25 10 13 10 11 11 14 16 18 19 19 17 17 16 16 15 15 15 15 16 17
5 4 3 4 1 2 5 4 4 6 9 7 10 14 18 21 20 18 16 17 17 17 18 18 12 9 11 11 10 11 12 13 12 13 13 14 17 17 17 17 17 15 15 16 16 16 16 16 16
3 2 3 3 3 2 1 5 4 5 6 9 9 12 17 20 22 17 16 19 17 18 18 17 15 15 13 13 13 12 12 11 12 13 13 14 16 17 16 14 13 14 14 14 14 15 15 15 16

GFSSGP_850_spd_108.txt.gz
Wind_Speed
7 4 4 3 3 4 3 5 2 4 8 6 4 5 5 5 5 4 10 19 26 27 27 25 22 20 19 18 16 15 15 14 13 12 10 9 5 6 10 13 13 9 12 13 13 12 12 13 15
7 5 2 1 4 1 5 4 7 2 10 8 3 1 3 2 3 7 18 21 27 27 27 24 23 20 19 18 17 17 16 14 14 13 10 5 5 9 12 15 14 11 13 11 13 12 12 14 17
7 7 3 3 3 6 5 5 5 5 10 8 3 5 2 2 2 17 12 26 26 29 29 26 23 20 19 18 18 17 17 17 15 10 6 6 8 11 15 17 13 11 10 10 13 10 11 13 15
7 5 2 2 7 5 4 5 3 8 7 6 4 2 2 3 4 9 22 27 28 29 28 25 23 19 21 20 17 19 17 15 11 9 9 10 12 14 18 15 13 11 9 11 12 10 10 12 14
8 3 1 5 5 4 3 7 13 6 5 3 4 1 3 4 5 11 24 25 26 26 26 26 24 20 19 19 18 17 17 13 11 12 12 14 16 14 18 14 12 11 9 11 12 8 8 10 11
5 2 3 9 5 4 4 6 6 6 1 5 3 0 2 3 4 15 22 23 24 25 24 25 23 22 22 18 16 16 14 13 14 15 16 16 17 16 12 13 11 10 10 10 10 8 8 8 9
5 3 4 3 2 2 2 2 2 3 6 6 2 2 1 10 12 17 20 22 24 25 24 24 21 19 19 16 16 15 15 15 17 18 16 16 15 14 13 12 11 10 10 10 9 7 7 7 8
2 3 2 4 4 4 3 2 3 4 2 3 2 5 5 13 17 23 21 24 25 25 23 22 19 18 17 17 16 15 16 19 19 18 15 14 13 12 11 12 12 12 12 10 8 7 7 8 10
3 1 2 2 2 3 3 5 2 8 8 8 4 4 5 16 24 25 24 25 27 27 24 21 18 17 18 18 18 18 18 20 20 16 12 12 11 11 12 13 13 13 12 11 9 9 10 12 14
3 3 5 4 3 4 10 6 5 6 10 10 9 6 6 18 27 27 29 30 29 29 26 22 19 19 20 21 21 20 20 22 20 14 9 11 12 12 12 14 14 14 13 14 13 13 15 15 17
2 3 3 5 9 13 8 12 12 5 5 15 14 11 15 20 29 28 30 29 26 24 25 22 21 21 22 22 21 23 23 22 16 13 12 13 14 14 14 13 14 15 14 15 16 17 16 16 16
2 7 5 5 5 6 6 13 6 15 16 15 23 14 19 28 32 32 34 31 29 24 23 21 22 23 25 23 23 23 23 20 17 14 14 13 14 14 15 16 17 16 17 18 17 17 17 16 16
3 3 7 14 19 17 18 14 12 15 14 18 24 18 24 32 34 33 35 31 27 27 23 20 24 26 26 24 24 23 22 19 18 18 16 12 14 16 17 18 18 18 18 17 17 16 15 15 14
5 10 16 12 12 10 5 10 6 4 9 16 19 19 22 32 37 36 39 36 32 28 22 17 25 27 28 26 26 23 21 19 19 19 15 13 14 16 18 19 20 20 18 16 15 14 13 13 12
6 4 7 2 6 6 3 6 5 7 6 11 13 14 23 32 36 39 39 38 36 27 25 20 25 28 30 29 27 24 21 21 20 19 16 14 16 17 18 18 20 19 18 16 14 13 12 10 11
4 3 4 7 5 4 1 7 12 11 15 19 13 10 14 28 36 38 39 33 34 33 32 24 22 29 30 30 27 26 23 22 21 19 17 15 15 18 19 20 20 19 18 16 14 12 11 9 8
5 4 4 7 5 4 3 7 8 19 27 18 20 14 8 19 29 37 37 33 38 33 32 28 23 30 32 30 28 28 25 23 22 20 19 16 16 17 18 20 20 19 17 16 14 13 10 8 7
6 5 4 6 5 0 9 11 12 23 21 18 20 18 14 13 22 28 39 35 38 32 32 29 29 31 32 31 30 31 30 27 24 23 22 18 17 18 18 19 19 19 18 17 14 11 11 9 7
6 4 7 10 9 4 7 9 13 19 18 15 18 19 18 16 13 20 29 37 42 35 31 34 31 32 35 34 32 33 34 32 27 26 25 21 17 19 19 19 19 19 17 16 14 13 12 11 10
7 7 8 8 6 4 8 10 15 12 13 18 17 17 16 16 16 18 26 35 42 41 34 32 34 33 30 26 32 38 38 35 31 28 25 23 20 20 18 18 18 18 18 18 16 15 13 12 11
6 5 5 11 8 2 8 6 6 5 8 11 10 10 12 14 17 17 23 30 37 43 41 34 40 31 21 35 40 41 41 41 35 31 28 26 22 21 19 18 17 18 18 16 16 15 14 13 12
7 2 6 7 5 4 6 4 5 10 7 6 19 25 21 13 17 18 21 28 34 40 45 43 39 42 30 38 48 48 47 47 40 36 33 30 28 22 18 18 17 17 17 17 16 15 14 13 12
8 10 2 1 4 3 8 2 6 7 10 16 18 25 27 15 13 16 21 25 28 35 38 39 41 50 43 39 44 50 46 45 42 38 36 24 22 19 19 19 19 20 17 16 16 15 14 13 12
8 3 3 2 3 3 7 4 5 10 15 16 16 22 22 16 6 12 16 23 26 33 36 38 41 50 52 48 47 46 42 39 32 23 24 18 20 24 23 21 21 20 18 17 16 16 14 14 13
8 6 5 6 6 3 6 4 4 17 13 8 14 17 16 9 7 4 12 18 22 27 31 34 37 40 43 41 37 34 26 4 5 7 14 21 22 23 23 22 21 20 18 17 17 16 15 15 16
4 3 3 2 5 5 5 3 5 15 21 19 22 18 20 17 16 13 9 13 18 22 22 25 29 28 31 28 29 28 17 8 13 23 21 22 21 25 25 21 19 19 18 17 16 17 16 17 17
3 4 1 1 0 2 4 4 5 12 18 19 19 23 27 27 20 17 14 10 13 18 19 15 14 11 16 17 18 10 7 24 19 16 22 27 18 15 17 16 17 16 16 17 16 17 17 17 17
5 3 3 3 5 6 4 4 7 14 15 14 15 19 23 24 26 24 17 11 11 10 7 3 5 2 9 14 2 15 15 14 15 14 10 11 11 14 15 15 17 17 17 17 17 17 16 16 16
4 3 3 1 2 1 6 4 3 4 7 11 12 16 20 24 22 22 25 26 19 15 15 14 11 11 13 13 8 10 11 13 12 9 9 9 11 11 12 14 17 17 15 15 14 14 15 15 16
0 2 3 3 5 2 1 5 2 4 4 4 12 14 16 19 20 23 23 23 22 18 16 16 17 16 16 14 13 13 13 11 9 8 8 9 11 12 12 13 12 12 13 14 14 14 14 14 14

GFSSGP_850_spd_111.txt.gz
Wind_Speed
5 4 5 3 1 1 2 4 2 2 3 3 3 3 4 3 4 2 7 19 28 31 29 26 25 22 21 19 17 17 16 15 14 13 10 9 7 8 11 11 10 13 14 14 11 13 14 15 15
6 5 5 3 2 3 4 3 9 6 6 11 4 2 3 2 2 3 15 20 30 31 28 27 26 22 21 19 18 16 16 15 14 13 10 6 8 12 14 13 9 12 12 13 11 13 14 15 16
7 7 3 3 3 9 4 4 5 3 16 4 2 2 1 1 2 11 10 26 29 30 29 27 23 23 21 19 18 18 17 16 15 13 7 6 11 15 16 13 12 10 11 12 10 12 13 14 14
9 6 2 3 9 5 4 3 2 10 8 4 3 1 2 2 4 6 20 30 29 30 27 24 23 22 21 20 19 19 17 17 14 9 7 10 14 17 16 14 12 8 13 10 10 11 12 13 13
11 4 2 5 8 5 5 5 6 8 6 5 6 1 1 2 6 8 23 27 27 29 25 24 22 21 20 20 20 19 19 16 10 10 11 13 16 19 14 14 11 9 14 11 9 8 9 10 10
3 2 3 10 12 5 5 6 7 2 2 3 1 1 2 3 4 13 23 24 26 27 27 25 22 20 21 21 20 19 17 13 12 12 13 17 14 17 14 12 12 10 13 10 7 8 8 9 10
4 2 5 4 3 3 4 1 2 0 3 1 1 2 1 8 8 18 23 24 26 26 26 27 23 21 19 20 19 15 15 15 14 16 18 18 16 14 15 11 11 9 11 9 7 8 7 9 10
3 1 2 3 8 8 7 3 2 2 0 6 1 1 2 6 13 19 23 24 23 25 26 26 24 21 22 18 16 15 16 17 19 19 15 17 15 13 11 10 10 10 10 8 8 8 8 9 12
3 1 2 4 5 4 3 5 2 4 3 6 4 5 4 7 10 22 25 28 26 27 26 26 23 20 20 18 18 17 18 19 19 20 15 16 16 13 11 11 12 11 11 9 9 9 10 12 15
2 2 5 4 3 4 11 9 9 6 12 4 7 11 9 10 25 30 30 30 32 33 31 26 23 20 20 20 20 20 21 21 22 20 14 12 12 13 14 14 13 12 12 11 12 13 15 16 18
1 3 3 7 11 10 7 13 12 10 10 10 12 10 10 16 27 31 27 30 35 33 31 27 23 20 21 22 22 23 22 24 22 16 10 12 14 15 16 17 15 14 14 14 15 17 17 17 17
2 5 5 6 7 6 7 10 11 16 16 20 19 16 15 22 29 30 32 30 30 33 32 28 24 22 24 24 23 23 23 23 20 15 12 13 15 16 16 15 15 16 16 17 18 18 17 18 17
2 3 4 12 19 16 17 15 14 11 18 17 20 17 17 23 27 31 34 31 31 33 33 30 26 25 25 26 25 24 24 23 18 15 14 15 15 16 17 17 17 18 18 18 19 18 17 17 17
2 9 14 11 8 9 5 6 1 7 9 12 17 20 20 24 30 35 37 36 34 29 31 31 27 27 27 27 25 25 23 22 19 16 17 15 15 17 18 19 19 20 19 18 17 18 16 15 14
3 5 7 3 4 5 2 4 4 4 5 9 18 12 15 19 23 34 38 37 33 33 30 32 30 30 30 27 25 23 23 21 19 19 18 15 18 19 19 20 21 20 20 18 18 17 15 14 13
3 2 6 6 7 3 1 9 9 13 8 18 22 14 13 16 22 27 34 36 37 32 34 33 30 32 32 26 25 25 23 22 20 22 19 17 19 20 20 21 22 21 19 17 16 15 15 13 12
4 6 7 8 2 4 1 10 9 17 19 18 20 16 14 13 19 25 30 31 37 36 34 32 30 31 32 29 26 25 24 22 22 22 21 19 20 21 20 21 21 20 19 17 15 14 12 12 11
6 6 6 10 5 6 12 14 14 20 15 15 18 21 17 15 14 20 24 28 33 36 34 31 29 30 31 33 27 26 26 24 25 25 23 21 21 22 21 21 21 21 20 18 16 13 12 11 10
6 5 12 15 13 6 10 15 14 21 17 15 16 20 17 15 15 13 21 27 30 35 33 32 31 30 34 35 30 29 30 29 28 27 24 23 22 23 22 22 23 22 20 19 18 16 13 12 11
7 10 9 10 4 4 9 16 10 12 13 10 8 11 15 15 13 13 13 22 30 34 33 31 30 30 30 28 28 30 30 30 29 28 28 26 23 21 21 22 23 22 21 21 19 16 15 14 13
7 4 7 7 7 2 12 5 8 21 12 12 19 17 14 15 15 14 11 19 24 35 36 31 28 31 29 29 27 28 30 31 32 32 32 31 28 24 22 21 21 21 21 20 18 16 15 15 15
5 2 7 4 2 5 10 3 5 20 20 22 25 21 19 15 16 17 14 16 22 26 33 35 32 31 30 29 22 30 37 35 35 38 37 34 36 32 28 22 19 20 21 21 19 18 17 16 15
7 10 1 2 1 1 13 2 2 16 20 25 29 24 19 15 16 17 16 17 20 25 27 34 35 31 34 34 25 34 36 38 35 35 36 38 37 30 30 25 21 22 23 20 19 19 19 18 16
11 3 3 3 1 3 9 3 5 11 17 21 24 20 18 14 10 12 13 16 19 23 26 30 33 32 35 35 37 32 33 33 23 27 28 15 13 28 26 26 27 25 25 21 20 19 19 18 17
10 6 4 4 6 3 5 3 4 15 21 15 17 19 15 13 12 5 5 7 10 14 18 21 26 35 35 39 31 23 24 10 12 8 11 19 21 34 33 30 25 23 22 21 21 20 19 18 17
4 3 3 1 3 6 7 7 6 11 19 23 20 19 19 18 16 15 11 9 7 9 12 17 21 24 24 22 18 15 6 5 10 16 23 19 20 24 26 25 24 21 20 23 21 19 18 18 18
2 4 2 3 1 3 3 1 4 17 20 26 26 29 26 24 18 18 16 13 13 11 9 10 11 10 7 13 14 16 2 9 12 14 18 14 16 18 26 28 18 22 20 21 19 19 19 18 17
4 3 1 3 5 5 5 3 9 13 16 16 17 21 26 24 23 20 22 21 18 15 15 18 13 14 18 17 16 11 7 6 12 8 15 16 18 22 15 15 17 19 16 19 19 18 16 16 16
3 3 4 1 1 1 5 3 5 1 9 11 15 18 23 25 26 30 27 27 25 26 22 20 15 18 20 10 12 10 8 9 11 7 7 9 9 9 11 13 15 15 17 16 16 15 15 15 16
1 2 3 2 2 0 1 3 2 2 5 7 9 13 17 20 23 26 24 25 27 27 27 26 21 18 11 14 15 14 15 13 9 10 9 8 7 8 8 10 11 12 12 12 13 14 14 14 14

GFSSGP_850_spd_114.txt.gz
Wind_Speed
6 6 6 2 5 5 8 4 5 5 2 6 4 6 5 6 3 3 3 15 21 26 23 25 24 23 21 20 18 18 17 16 14 13 10 8 7 9 9 10 13 15 10 10 12 13 14 14 14
7 7 5 3 7 10 9 8 9 8 4 9 3 6 7 4 1 0 9 16 22 25 24 22 23 22 20 19 18 18 17 16 15 12 8 7 7 11 10 10 11 12 10 11 11 12 13 14 15
8 9 6 4 10 15 10 6 4 3 5 6 3 3 2 1 2 4 5 18 25 23 24 23 24 22 21 20 18 18 17 16 15 12 8 6 10 14 12 10 10 11 9 9 10 11 11 12 14
5 5 5 9 16 12 13 8 4 12 8 5 5 5 1 1 1 5 10 22 24 22 21 23 24 21 21 20 18 17 17 18 15 11 7 9 13 15 12 12 9 10 8 9 9 10 11 11 12
7 5 9 14 20 16 10 8 8 11 11 8 6 2 1 1 5 5 17 23 22 21 21 22 22 23 20 19 18 18 17 16 13 10 8 13 16 14 13 11 8 11 8 8 8 7 7 8 9
8 7 10 15 18 13 10 12 9 11 13 8 7 5 2 3 6 12 18 20 20 20 20 21 23 21 20 19 18 19 19 15 10 9 12 15 18 14 14 12 10 11 8 5 6 6 6 8 9
9 8 14 16 15 10 11 7 10 7 7 3 2 5 2 4 8 15 18 18 19 19 19 19 21 21 19 19 19 18 16 14 11 11 16 16 18 14 14 11 10 11 8 5 6 6 6 8 9
5 5 11 10 12 15 10 11 5 5 1 4 1 3 3 8 13 16 18 18 20 19 19 20 21 19 18 17 19 18 15 14 15 15 18 17 15 14 12 12 9 11 8 6 6 6 7 8 10
3 5 8 11 9 10 5 6 4 3 8 3 5 4 1 9 13 19 20 18 20 22 22 21 20 19 18 16 17 17 16 17 19 19 17 16 13 11 10 12 10 11 9 7 7 7 9 12 13
6 5 5 5 10 10 12 14 14 10 12 11 8 6 2 12 17 22 23 21 23 24 25 22 20 19 19 17 16 16 17 19 20 19 15 12 13 11 12 12 11 11 9 9 9 11 13 15 15
2 5 4 11 12 14 16 17 16 17 17 19 15 12 7 13 18 21 20 18 24 24 24 23 21 20 19 18 18 18 18 19 21 18 15 12 13 13 12 12 12 11 10 11 13 14 12 13 13
6 5 7 8 9 10 14 16 16 17 20 20 21 18 13 15 18 25 22 27 28 27 26 25 22 21 20 18 19 20 21 23 17 16 14 13 13 14 14 13 13 13 11 14 14 14 15 15 14
5 6 8 12 15 17 15 16 17 18 18 18 18 16 15 17 18 21 24 25 25 26 27 26 25 22 21 20 19 23 25 22 16 16 14 13 14 14 14 14 13 14 16 16 16 15 14 13 12
6 12 15 10 11 9 10 13 4 8 6 7 12 16 18 19 21 21 24 25 27 26 27 27 25 23 22 22 22 26 24 24 19 15 13 14 14 14 14 14 14 16 16 17 17 16 14 13 11
8 9 10 1 7 9 4 12 10 6 8 8 10 10 10 15 19 25 27 29 28 25 25 27 25 24 23 23 22 26 26 24 21 16 15 16 15 15 16 16 17 17 17 16 15 14 14 13 12
4 5 8 8 5 1 4 13 6 8 8 12 15 15 10 9 13 19 24 26 25 28 26 26 26 25 24 23 24 24 27 23 20 17 18 17 17 18 18 18 18 21 19 19 18 16 14 12 10
0 9 13 10 7 6 7 13 9 16 16 16 16 16 13 10 7 14 20 24 25 26 29 26 27 26 25 25 26 23 23 24 20 18 20 18 18 20 19 20 21 22 21 19 17 15 12 11 10
12 13 9 12 8 13 14 16 15 18 18 17 17 16 13 12 9 8 16 22 23 26 28 32 30 25 24 25 27 27 24 22 21 18 20 19 20 21 20 20 22 22 21 20 18 15 13 10 9
11 12 13 11 8 10 9 14 6 14 12 11 10 11 11 11 8 5 9 17 21 25 26 30 30 28 27 31 33 30 31 26 22 21 22 22 20 21 21 21 23 22 21 19 17 14 15 13 10
11 11 12 4 5 4 15 4 4 11 11 12 16 13 12 12 9 6 4 12 19 21 27 28 30 30 29 33 33 32 31 27 22 23 24 23 21 21 22 23 22 22 21 20 19 18 14 12 14
9 10 13 10 10 3 14 6 4 17 16 19 16 14 12 12 13 8 6 9 17 22 26 27 28 30 30 29 29 31 27 28 26 25 26 26 25 24 24 22 22 22 21 19 19 19 17 15 15
9 14 10 5 5 7 11 4 5 20 20 20 22 21 18 14 13 12 9 10 16 22 25 27 29 30 31 33 34 28 27 31 29 28 30 32 29 30 30 27 24 22 19 17 19 20 18 16 15
10 13 4 2 2 5 15 4 10 21 20 26 27 27 20 16 15 13 11 12 12 16 20 21 25 29 30 30 30 22 26 23 25 25 30 34 34 38 37 34 28 25 21 18 19 23 21 19 18
16 5 3 2 2 3 7 5 10 13 18 21 27 22 19 16 11 8 7 9 8 13 18 20 24 22 26 29 27 27 21 27 28 28 36 36 39 38 35 40 38 30 33 29 24 25 22 22 21
16 11 2 1 3 5 8 6 5 15 21 16 16 20 18 15 12 7 5 8 11 13 16 16 20 27 27 26 27 23 15 2 5 9 13 21 17 18 29 38 33 35 29 24 24 24 22 23 23
8 6 3 3 6 5 9 10 6 14 16 21 22 20 20 19 14 17 13 15 14 14 14 16 20 20 16 19 21 8 8 13 11 6 11 24 17 20 32 38 33 27 29 25 23 23 22 22 23
5 5 2 1 2 4 3 12 4 15 16 23 26 27 27 22 19 22 22 18 17 14 12 16 15 12 8 7 10 17 19 10 14 16 11 13 12 20 31 32 28 24 21 22 23 21 21 23 24
5 1 1 2 5 5 5 11 7 16 16 16 21 26 25 21 21 22 25 26 25 22 19 23 26 22 23 22 21 14 12 13 13 13 13 9 9 9 26 32 28 21 21 20 22 22 19 24 22
1 2 3 1 3 4 6 6 5 8 11 13 16 18 22 22 25 25 24 28 26 24 24 27 27 22 21 21 20 11 10 5 9 9 11 12 6 8 12 16 12 12 16 19 21 20 21 19 19
2 2 4 4 2 1 3 3 5 5 7 9 11 13 15 19 20 23 28 27 25 25 22 20 21 13 16 18 12 9 9 10 11 12 12 11 10 11 10 10 11 12 14 15 15 15 15 16 16

GFSSGP_850_spd_117.txt.gz
Wind_Speed
4 3 4 6 7 7 13 11 8 4 9 5 6 8 6 11 8 3 5 7 17 22 23 24 23 21 19 17 15 14 13 13 11 10 8 7 7 9 10 13 12 8 9 12 13 14 13 12 11
4 5 6 10 8 12 11 13 8 8 3 6 3 6 9 6 5 3 10 13 17 20 20 22 23 21 20 18 17 15 14 13 11 9 7 6 8 9 9 11 11 7 10 11 12 13 13 14 14
5 8 11 5 13 15 14 3 5 1 6 7 4 2 6 5 4 5 6 20 20 20 18 20 24 22 20 18 17 15 15 14 11 8 6 5 9 10 9 10 10 7 8 10 11 12 12 13 14
5 6 12 12 19 15 15 14 5 7 8 8 5 9 4 3 2 5 10 20 22 20 18 20 23 21 20 18 17 16 15 14 11 8 5 5 11 12 11 10 9 5 7 8 9 10 11 11 13
8 11 11 15 20 21 19 10 9 10 11 10 11 10 2 3 3 5 16 21 21 18 18 19 22 21 19 18 17 16 15 15 11 8 5 8 13 10 12 9 8 6 7 6 7 7 8 9 11
9 9 12 15 20 19 17 11 15 15 18 16 6 18 4 5 5 10 18 21 19 19 19 19 23 20 20 19 17 16 16 14 10 8 7 12 13 12 11 8 9 6 6 5 5 6 7 8 11
12 9 14 18 18 18 12 9 13 18 16 9 4 10 7 7 9 12 17 19 18 18 18 18 19 21 19 18 17 18 16 13 9 7 11 16 13 12 11 9 9 6 3 3 4 5 6 8 10
9 8 17 15 14 15 13 13 8 8 12 6 3 5 4 15 14 14 16 17 17 17 19 20 21 18 17 18 18 17 15 12 9 12 14 16 12 11 10 6 8 6 4 3 4 5 6 9 12
5 6 11 13 13 11 10 8 14 6 13 10 7 9 6 9 10 16 15 16 18 18 17 19 21 19 17 16 17 16 13 11 13 17 16 14 11 11 8 9 9 6 4 4 4 7 8 12 16
7 8 12 9 10 11 13 14 14 14 11 18 15 10 4 2 7 14 17 17 19 18 18 19 21 22 19 16 14 13 12 15 16 16 16 9 9 9 10 11 9 7 5 5 7 12 15 13 16
4 11 9 10 12 13 16 17 16 17 16 20 18 12 5 8 8 13 17 17 19 19 17 21 20 22 17 17 14 15 14 16 20 18 17 11 11 12 9 10 9 7 6 7 12 14 11 9 10
8 8 8 11 11 12 14 16 18 18 18 18 19 20 17 13 15 16 18 19 21 22 17 21 21 17 18 16 15 15 15 20 21 20 16 14 10 12 10 10 10 7 7 9 9 8 11 11 11
9 8 11 14 14 16 17 18 17 19 19 17 18 21 23 19 18 18 18 20 18 20 29 24 21 19 18 17 16 16 21 18 22 16 16 12 12 13 12 11 11 9 9 9 9 10 11 11 11
10 14 15 12 11 12 13 16 16 14 6 11 14 19 19 19 21 20 19 19 21 23 24 26 21 22 19 18 17 17 18 24 21 20 15 12 12 12 12 12 11 11 11 11 10 10 10 10 10
11 10 11 1 6 10 9 14 16 13 8 12 12 13 14 16 19 23 23 22 23 24 28 25 26 22 19 18 19 19 22 23 18 16 13 13 13 13 13 13 12 12 12 12 11 10 10 9 8
7 7 8 9 4 3 5 12 10 5 11 12 16 16 14 14 16 20 23 25 25 27 29 31 30 27 23 20 21 22 23 26 22 13 14 15 15 14 14 13 13 14 13 13 12 11 10 9 9
6 12 12 8 2 5 7 15 13 15 17 18 19 19 20 16 14 15 19 24 25 29 32 28 28 27 26 23 22 23 22 26 23 14 14 17 15 15 15 14 15 15 15 13 12 11 9 9 8
15 15 13 11 9 11 11 13 11 12 13 14 14 17 20 18 15 12 15 21 24 27 31 34 35 32 27 24 25 22 21 26 18 15 16 17 17 17 15 16 16 16 16 13 13 10 9 8 7
13 14 14 11 7 10 11 8 5 7 6 9 15 13 14 15 11 10 12 17 20 20 28 35 40 34 35 30 27 28 24 23 18 16 15 17 18 20 17 16 16 17 15 14 13 10 9 9 8
15 12 13 7 3 8 12 4 3 10 13 17 14 13 13 13 15 16 12 13 16 17 24 43 37 36 34 33 32 33 27 24 20 17 19 21 21 19 21 21 21 19 15 13 14 13 11 9 10
14 9 15 15 13 7 16 8 8 18 15 18 22 23 17 14 13 15 10 11 13 18 22 25 31 35 33 32 31 33 28 27 24 19 19 23 20 20 24 24 21 20 15 14 14 16 13 9 9
11 17 13 8 7 7 10 2 7 16 15 18 20 21 19 15 14 12 14 13 13 15 17 22 24 26 30 29 28 29 28 26 28 26 23 22 25 27 28 28 26 25 24 20 17 14 12 11 11
10 14 8 6 9 7 12 5 5 19 16 22 24 21 17 15 13 12 11 12 12 12 12 17 6 17 27 25 19 24 25 22 20 21 25 28 31 31 30 29 30 26 22 20 18 17 12 11 13
14 14 5 6 8 1 13 5 5 12 12 17 20 21 18 18 15 11 7 9 10 8 8 11 9 11 20 19 12 18 19 22 19 21 21 26 33 36 36 40 38 40 33 33 24 20 20 14 19
15 14 3 2 4 7 13 3 7 12 11 11 14 19 19 17 15 10 5 7 7 10 9 9 13 18 15 8 12 17 20 17 19 18 24 29 32 33 37 39 42 41 40 33 26 24 18 21 21
8 7 3 2 5 6 8 8 6 9 7 12 20 19 17 19 16 13 8 9 7 9 12 14 14 15 14 13 14 15 11 2 5 9 11 11 13 16 13 21 29 35 34 28 26 24 23 23 23
9 7 3 2 5 5 2 9 5 10 14 19 22 25 23 22 18 20 18 12 10 11 12 15 15 15 13 16 15 14 13 11 4 4 1 8 11 8 10 19 24 26 26 23 24 25 25 23 20
4 3 2 1 4 5 3 9 8 14 15 15 19 22 23 24 21 22 22 21 21 20 21 22 22 23 26 21 20 17 12 10 5 3 6 4 4 6 9 17 22 25 22 21 22 23 18 17 20
2 2 3 3 2 4 7 7 8 10 10 12 16 16 19 23 19 22 21 24 26 28 26 25 27 27 24 20 16 14 13 7 4 5 6 7 6 5 5 16 26 23 22 19 16 18 22 22 25
3 4 6 4 6 4 4 4 7 7 9 10 12 12 15 17 19 22 24 23 26 29 28 25 22 22 18 14 9 8 4 3 6 8 8 8 9 8 8 10 12 9 8 9 11 15 17 13 13